Weather in Udachnoye

Russia / Astrakhan Oblast     47°44′46″N   46°47′51″E
temp.,
°C
wind,
m/s
gust,
m/s
humid.,
%
clouds,
%
prec.,
mm/h
press.,
hPa
HPBL,
m
18 september, sat
sat1801:00+12s3346100 0.0 101820
04:00+11ssw335272 0.0 101827
07:00+12ssw335278 0.0 101849
10:00+18sw223310 0.0 1019786
13:00+21sse00255 0.0 10181950
16:00+22ese11235 0.0 10172274
19:00+17sse333156 0.0 101724
22:00+15e443575 0.0 101842
19 september, sun
sun1901:00+13e610495 0.0 1019209
04:00+11e5855100 0.0 1019139
07:00+11ese4759100 0.0 1020148
10:00+18se564595 0.0 1020762
13:00+21se772899 0.0 10191607
16:00+23ese772899 0.0 10181909
19:00+19ese6103868 0.0 1018292
22:00+17se5114987 0.0 1018392
20 september, mon
mon2001:00+15ese4115284 0.0 1018323
04:00+14ese51251100 0.0 1016283
07:00+14ese61241100 0.0 1015320
10:00+18ese4732100 0.0 1016434
13:00+20e3634100 0.0 1015557
16:00+23se3535100 0.0 1013800
19:00+19sw1147100 0.0 101311
22:00+18sse335236 0.0 101431
21 september, tue
tue2101:00+18s33538 0.0 101426
04:00+17ssw336461 0.1 101423
07:00+16ssw3367100 0.3 101524
10:00+22ssw5647100 0.7 1015492
13:00+23ssw5751100 0.1 1015594
16:00+21sse2360100 0.1 1014147
19:00+19ene1265100 0.1 101414
22:00+19se3668100 0.1 1013159
22 september, wed
wed2201:00+16sw5972100 0.8 1014434
04:00+15sse4694100 5.6 1012282
07:00+16w358791 0.3 1013433
10:00+18w56592 0.3 1014865
13:00+21w56381 0.0 10141530
16:00+22wsw45325 0.0 10141998
19:00+18wsw33415 0.0 101419
22:00+16wnw61056100 0.0 1015325